Location: Zagreb
(45.8000°N, 16.0000°E)
Time: 04:45:14
(UTC+01:00)

SR - Visible Passes

Search period start: 23 January 2022 00:00
Search period end: 02 February 2022 00:00
Orbit: 582 x 872 km, 66.7° (Epoch: 22 January)

Date Brightness Start Highest point End Pass type
(mag) Time Alt. Az. Time Alt. Az. Time Alt. Az.
23 Jan ? 18:05:24 10° N 18:08:53 21° NE 18:09:41 20° NE visible
23 Jan ? 19:46:39 10° NW 19:49:07 32° NW 19:49:07 32° NW visible
24 Jan ? 18:56:47 10° NNW 19:01:23 60° NE 19:01:23 60° NE visible
24 Jan ? 20:39:39 10° WNW 20:40:50 15° WNW 20:40:50 15° WNW visible
25 Jan ? 18:07:08 10° NNW 18:11:20 33° NE 18:13:54 20° E visible
25 Jan ? 19:49:01 10° NW 19:53:23 38° WSW 19:53:23 38° WSW visible
26 Jan ? 18:58:54 10° NW 19:03:36 76° WSW 19:06:21 27° SSE visible
26 Jan ? 20:44:24 10° W 20:44:56 10° WSW 20:45:29 10° WSW visible
27 Jan ? 18:09:04 10° NNW 18:13:40 56° NE 18:18:39 10° SE visible
27 Jan ? 19:51:47 10° WNW 19:55:23 21° WSW 19:59:12 10° SSW visible
28 Jan ? 17:19:26 10° NNW 17:23:35 31° NE 17:28:02 10° ESE visible
28 Jan ? 19:01:14 10° NW 19:05:42 41° WSW 19:10:31 10° S visible
29 Jan ? 18:11:09 10° NW 18:15:53 82° WSW 18:21:01 10° SSE visible
29 Jan ? 19:55:45 10° W 19:57:16 11° WSW 19:58:48 10° WSW visible
30 Jan ? 19:03:55 10° WNW 19:07:42 23° WSW 19:11:43 10° SSW visible
31 Jan ? 18:13:27 10° NW 18:18:00 45° WSW 18:22:55 10° S visible
01 Feb ? 17:23:24 10° NNW 17:28:10 88° WSW 17:33:21 10° SSE visible
01 Feb ? 19:07:32 10° W 19:09:35 12° WSW 19:11:41 10° SW visible
